| time (UTC) | temp F | wind direction | speed MPH | gust MPH | rain 1hr in | rain 24hr in | rain mn in | humidity % | barometer mb |
| 20260906011233 | 63 | 34 | 0.0 | 0.0 | 0.00 | 0.00 | 0.00 | 86 | 1017.7 |
| 20260906010233 | 64 | 34 | 0.0 | 0.0 | 0.00 | 0.00 | 0.00 | 83 | 1017.6 |
| 20260906005803 | 64 | 34 | 0.0 | 0.0 | 0.00 | 0.00 | 0.00 | 83 | 1017.7 |
| 20260906004733 | 65 | 34 | 0.0 | 0.0 | 0.00 | 0.00 | 0.00 | 81 | 1017.6 |
| 20260906004234 | 66 | 34 | 0.0 | 0.0 | 0.00 | 0.00 | 0.00 | 80 | 1017.7 |
| 20260906003733 | 66 | 34 | 0.0 | 0.0 | 0.00 | 0.00 | 0.00 | 80 | 1017.6 |
| 20260906003234 | 67 | 34 | 0.0 | 0.0 | 0.00 | 0.00 | 0.00 | 79 | 1017.7 |
| 20260906002733 | 67 | 34 | 0.0 | 0.0 | 0.00 | 0.00 | 0.00 | 79 | 1017.7 |
| 20260906001734 | 68 | 34 | 0.0 | 0.0 | 0.00 | 0.00 | 0.00 | 77 | 1017.7 |
| 20260906001234 | 69 | 34 | 0.0 | 0.0 | 0.00 | 0.00 | 0.00 | 76 | 1017.7 |
| 20260906000733 | 69 | 34 | 0.0 | 0.0 | 0.00 | 0.00 | 0.00 | 76 | 1017.5 |
| 20260906000234 | 69 | 34 | 0.0 | 0.0 | 0.00 | 0.00 | 0.00 | 76 | 1017.5 |
| 20260905235733 | 70 | 34 | 0.0 | 0.0 | 0.00 | 0.00 | 0.00 | 73 | 1017.7 |
| 20260905235233 | 70 | 40 | 0.0 | 0.0 | 0.00 | 0.00 | 0.00 | 73 | 1017.5 |
| 20260905234733 | 70 | 5 | 0.0 | 0.0 | 0.00 | 0.00 | 0.00 | 72 | 1017.5 |
| 20260905234234 | 71 | 338 | 0.0 | 0.0 | 0.00 | 0.00 | 0.00 | 73 | 1017.4 |
| 20260905233734 | 71 | 45 | 0.0 | 0.0 | 0.00 | 0.00 | 0.00 | 71 | 1017.5 |
| 20260905233233 | 72 | 5 | 0.0 | 0.0 | 0.00 | 0.00 | 0.00 | 72 | 1017.5 |
| 20260905232733 | 72 | 39 | 0.0 | 0.0 | 0.00 | 0.00 | 0.00 | 71 | 1017.4 |
| 20260905232233 | 72 | 360 | 0.0 | 0.0 | 0.00 | 0.00 | 0.00 | 69 | 1017.3 |
| 20260905231734 | 72 | 26 | 0.0 | 0.0 | 0.00 | 0.00 | 0.00 | 68 | 1017.3 |
| 20260905231233 | 73 | 342 | 0.0 | 0.0 | 0.00 | 0.00 | 0.00 | 67 | 1017.3 |
| 20260905230733 | 73 | 24 | 0.0 | 0.0 | 0.00 | 0.00 | 0.00 | 66 | 1017.4 |
| 20260905225733 | 73 | 344 | 0.0 | 0.0 | 0.00 | 0.00 | 0.00 | 66 | 1017.3 |
| 20260905225233 | 73 | 41 | 0.0 | 0.0 | 0.00 | 0.00 | 0.00 | 64 | 1017.2 |
| 20260905224733 | 74 | 17 | 0.0 | 0.0 | 0.00 | 0.00 | 0.00 | 66 | 1017.1 |
| 20260905224233 | 74 | 18 | 0.0 | 0.0 | 0.00 | 0.00 | 0.00 | 64 | 1017.1 |
| 20260905223733 | 74 | 11 | 0.0 | 0.0 | 0.00 | 0.00 | 0.00 | 65 | 1017.0 |
| 20260905222733 | 74 | 332 | 0.0 | 0.0 | 0.00 | 0.00 | 0.00 | 64 | 1017.0 |
| 20260905222234 | 75 | 65 | 0.0 | 0.0 | 0.00 | 0.00 | 0.00 | 65 | 1016.9 |
| 20260905221733 | 75 | 360 | 0.0 | 0.0 | 0.00 | 0.00 | 0.00 | 65 | 1016.9 |
| 20260905221233 | 75 | 14 | 0.0 | 0.0 | 0.00 | 0.00 | 0.00 | 63 | 1016.9 |
| 20260905220733 | 75 | 319 | 0.0 | 0.0 | 0.00 | 0.00 | 0.00 | 62 | 1016.9 |
| 20260905215800 | 76 | 19 | 0.0 | 0.0 | 0.00 | 0.00 | 0.00 | 60 | 1016.8 |
| 20260905215300 | 76 | 327 | 0.0 | 0.0 | 0.00 | 0.00 | 0.00 | 60 | 1016.9 |
| 20260905214800 | 76 | 347 | 0.0 | 0.0 | 0.00 | 0.00 | 0.00 | 60 | 1016.8 |
| 20260905214300 | 76 | 56 | 0.0 | 0.0 | 0.00 | 0.00 | 0.00 | 58 | 1016.8 |
| 20260905213730 | 77 | 335 | 0.0 | 0.0 | 0.00 | 0.00 | 0.00 | 59 | 1016.9 |
| 20260905213300 | 77 | 355 | 0.0 | 0.0 | 0.00 | 0.00 | 0.00 | 58 | 1016.9 |
| 20260905212730 | 77 | 15 | 0.0 | 0.0 | 0.00 | 0.00 | 0.00 | 59 | 1016.8 |
| 20260905212230 | 77 | 327 | 0.0 | 0.0 | 0.00 | 0.00 | 0.00 | 58 | 1016.9 |
| 20260905211800 | 77 | 329 | 0.0 | 0.0 | 0.00 | 0.00 | 0.00 | 58 | 1016.9 |
| 20260905211230 | 77 | 11 | 0.0 | 0.0 | 0.00 | 0.00 | 0.00 | 59 | 1016.9 |
| 20260905210800 | 77 | 26 | 0.0 | 0.0 | 0.00 | 0.00 | 0.00 | 60 | 1016.9 |
| 20260905210230 | 77 | 32 | 0.0 | 0.0 | 0.00 | 0.00 | 0.00 | 58 | 1016.8 |
| 20260905205300 | 77 | 330 | 0.0 | 0.0 | 0.00 | 0.00 | 0.00 | 58 | 1017.0 |
| 20260905204800 | 77 | 340 | 0.0 | 0.0 | 0.00 | 0.00 | 0.00 | 58 | 1017.1 |
| 20260905203800 | 77 | 25 | 0.0 | 0.0 | 0.00 | 0.00 | 0.00 | 57 | 1017.3 |
| 20260905203230 | 78 | 331 | 0.0 | 0.0 | 0.00 | 0.00 | 0.00 | 59 | 1017.2 |
| 20260905201800 | 77 | 78 | 0.0 | 0.0 | 0.00 | 0.00 | 0.00 | 57 | 1017.1 |
| 20260905201230 | 78 | 5 | 0.0 | 0.0 | 0.00 | 0.00 | 0.00 | 57 | 1017.2 |
| 20260905200800 | 78 | 348 | 0.0 | 0.0 | 0.00 | 0.00 | 0.00 | 59 | 1017.1 |
| 20260905195800 | 78 | 313 | 0.0 | 0.0 | 0.00 | 0.00 | 0.00 | 62 | 1017.1 |
| 20260905195300 | 77 | 360 | 0.0 | 0.0 | 0.00 | 0.00 | 0.00 | 62 | 1017.1 |
| 20260905194800 | 77 | 311 | 0.0 | 0.0 | 0.00 | 0.00 | 0.00 | 62 | 1017.1 |
| 20260905194300 | 77 | 31 | 0.0 | 0.0 | 0.00 | 0.00 | 0.00 | 61 | 1017.2 |
| 20260905193300 | 78 | 16 | 0.0 | 0.0 | 0.00 | 0.00 | 0.00 | 60 | 1017.3 |
| 20260905192800 | 78 | 342 | 0.0 | 0.0 | 0.00 | 0.00 | 0.00 | 63 | 1017.5 |
| 20260905192230 | 78 | 314 | 0.0 | 0.0 | 0.00 | 0.00 | 0.00 | 62 | 1017.4 |
| 20260905191800 | 77 | 329 | 0.0 | 0.0 | 0.00 | 0.00 | 0.00 | 63 | 1017.4 |
| 20260905191230 | 77 | 254 | 0.0 | 0.0 | 0.00 | 0.00 | 0.00 | 65 | 1017.6 |
| 20260905190800 | 77 | 333 | 0.0 | 0.0 | 0.00 | 0.00 | 0.00 | 64 | 1017.7 |
| 20260905190230 | 77 | 14 | 0.0 | 0.0 | 0.00 | 0.00 | 0.00 | 64 | 1017.7 |
| 20260905185800 | 77 | 22 | 0.0 | 0.0 | 0.00 | 0.00 | 0.00 | 66 | 1017.8 |
| 20260905185300 | 77 | 355 | 0.0 | 0.0 | 0.00 | 0.00 | 0.00 | 66 | 1017.7 |
| 20260905184300 | 78 | 339 | 0.0 | 0.0 | 0.00 | 0.00 | 0.00 | 65 | 1017.7 |
| 20260905183800 | 77 | 342 | 0.0 | 0.0 | 0.00 | 0.00 | 0.00 | 64 | 1017.7 |
| 20260905183300 | 77 | 360 | 0.0 | 0.0 | 0.00 | 0.00 | 0.00 | 65 | 1017.6 |
| 20260905182730 | 77 | 19 | 0.0 | 0.0 | 0.00 | 0.00 | 0.00 | 66 | 1017.7 |
| 20260905182230 | 78 | 339 | 0.0 | 0.0 | 0.00 | 0.00 | 0.00 | 64 | 1017.5 |
| 20260905181800 | 78 | 40 | 0.0 | 0.0 | 0.00 | 0.00 | 0.00 | 63 | 1017.7 |
| 20260905180730 | 78 | 5 | 0.0 | 0.0 | 0.00 | 0.00 | 0.00 | 62 | 1017.8 |
| 20260905175743 | 78 | 19 | 0.0 | 0.0 | 0.00 | 0.00 | 0.00 | 63 | 1017.6 |
| 20260905175243 | 78 | 34 | 0.0 | 0.0 | 0.00 | 0.00 | 0.00 | 61 | 1017.4 |
| 20260905174743 | 78 | 45 | 0.0 | 0.0 | 0.00 | 0.00 | 0.00 | 59 | 1017.6 |
| 20260905174243 | 78 | 16 | 0.0 | 0.0 | 0.00 | 0.00 | 0.00 | 59 | 1017.7 |
| 20260905173743 | 78 | 351 | 0.0 | 0.0 | 0.00 | 0.00 | 0.00 | 59 | 1017.7 |
| 20260905172751 | 77 | 316 | 0.0 | 0.0 | 0.00 | 0.00 | 0.00 | 61 | 1017.7 |
| 20260905172251 | 77 | 349 | 0.0 | 0.0 | 0.00 | 0.00 | 0.00 | 58 | 1017.7 |
| 20260905171751 | 78 | 355 | 0.0 | 0.0 | 0.00 | 0.00 | 0.00 | 58 | 1017.8 |
| 20260905171251 | 78 | 28 | 0.0 | 0.0 | 0.00 | 0.00 | 0.00 | 57 | 1017.8 |
| 20260905170751 | 78 | 54 | 0.0 | 0.0 | 0.00 | 0.00 | 0.00 | 57 | 1017.8 |
| 20260905170251 | 77 | 321 | 0.0 | 0.0 | 0.00 | 0.00 | 0.00 | 59 | 1017.8 |
| 20260905165751 | 77 | 40 | 0.0 | 0.0 | 0.00 | 0.00 | 0.00 | 57 | 1017.9 |
| 20260905164751 | 77 | 355 | 0.0 | 0.0 | 0.00 | 0.00 | 0.00 | 60 | 1017.8 |
| 20260905164250 | 77 | 79 | 0.0 | 0.0 | 0.00 | 0.00 | 0.00 | 57 | 1017.8 |
| 20260905163751 | 77 | 51 | 0.0 | 0.0 | 0.00 | 0.00 | 0.00 | 60 | 1017.9 |
| 20260905162750 | 77 | 53 | 0.0 | 0.0 | 0.00 | 0.00 | 0.00 | 61 | 1018.0 |
| 20260905162250 | 77 | 61 | 0.0 | 0.0 | 0.00 | 0.00 | 0.00 | 63 | 1018.0 |
| 20260905161750 | 77 | 75 | 0.0 | 0.0 | 0.00 | 0.00 | 0.00 | 62 | 1018.0 |
| 20260905161251 | 77 | 10 | 0.0 | 0.0 | 0.00 | 0.00 | 0.00 | 61 | 1018.1 |
| 20260905160751 | 77 | 75 | 0.0 | 0.0 | 0.00 | 0.00 | 0.00 | 60 | 1018.1 |
| 20260905160251 | 76 | 65 | 0.0 | 0.0 | 0.00 | 0.00 | 0.00 | 62 | 1018.0 |
| 20260905155751 | 76 | 28 | 0.0 | 0.0 | 0.00 | 0.00 | 0.00 | 61 | 1018.0 |
| 20260905154751 | 76 | 198 | 0.0 | 0.0 | 0.00 | 0.00 | 0.00 | 62 | 1018.3 |
| 20260905154250 | 76 | 175 | 0.0 | 0.0 | 0.00 | 0.00 | 0.00 | 63 | 1018.3 |
| 20260905153751 | 76 | 214 | 0.0 | 0.0 | 0.00 | 0.00 | 0.00 | 62 | 1018.1 |
| 20260905153251 | 75 | 5 | 0.0 | 0.0 | 0.00 | 0.00 | 0.00 | 65 | 1017.9 |
| 20260905152751 | 75 | 94 | 0.0 | 0.0 | 0.00 | 0.00 | 0.00 | 65 | 1017.9 |
| 20260905152250 | 75 | 61 | 0.0 | 0.0 | 0.00 | 0.00 | 0.00 | 66 | 1017.9 |
| 20260905151750 | 75 | 69 | 0.0 | 0.0 | 0.00 | 0.00 | 0.00 | 66 | 1017.9 |
| 20260905151251 | 74 | 44 | 0.0 | 0.0 | 0.00 | 0.00 | 0.00 | 65 | 1017.9 |
| 20260905150751 | 74 | 360 | 0.0 | 0.0 | 0.00 | 0.00 | 0.00 | 67 | 1017.8 |
| 20260905150251 | 74 | 34 | 0.0 | 0.0 | 0.00 | 0.00 | 0.00 | 67 | 1017.8 |
| 20260905145751 | 74 | 12 | 0.0 | 0.0 | 0.00 | 0.00 | 0.00 | 67 | 1017.6 |
| 20260905145251 | 74 | 38 | 0.0 | 0.0 | 0.00 | 0.00 | 0.00 | 68 | 1017.6 |
| 20260905144751 | 74 | 105 | 0.0 | 0.0 | 0.00 | 0.00 | 0.00 | 68 | 1017.5 |
| 20260905144251 | 74 | 80 | 0.0 | 0.0 | 0.00 | 0.00 | 0.00 | 68 | 1017.6 |
| 20260905143750 | 73 | 125 | 0.0 | 0.0 | 0.00 | 0.00 | 0.00 | 70 | 1017.6 |
| 20260905143251 | 73 | 112 | 0.0 | 0.0 | 0.00 | 0.00 | 0.00 | 71 | 1017.5 |
| 20260905142751 | 72 | 163 | 0.0 | 0.0 | 0.00 | 0.00 | 0.00 | 73 | 1017.4 |
| 20260905142251 | 72 | 96 | 0.0 | 0.0 | 0.00 | 0.00 | 0.00 | 73 | 1017.4 |
| 20260905141751 | 72 | 57 | 0.0 | 0.0 | 0.00 | 0.00 | 0.00 | 73 | 1017.3 |
| 20260905141251 | 72 | 81 | 0.0 | 0.0 | 0.00 | 0.00 | 0.00 | 74 | 1017.3 |
| 20260905140751 | 71 | 34 | 0.0 | 0.0 | 0.00 | 0.00 | 0.00 | 75 | 1017.2 |
| 20260905135741 | 71 | 79 | 0.0 | 0.0 | 0.00 | 0.00 | 0.00 | 76 | 1017.1 |
| 20260905135240 | 70 | 69 | 0.0 | 0.0 | 0.00 | 0.00 | 0.00 | 77 | 1017.1 |
| 20260905134740 | 70 | 71 | 0.0 | 0.0 | 0.00 | 0.00 | 0.00 | 79 | 1017.1 |
| 20260905134241 | 69 | 78 | 0.0 | 0.0 | 0.00 | 0.00 | 0.00 | 79 | 1017.0 |
| 20260905133740 | 69 | 81 | 0.0 | 0.0 | 0.00 | 0.00 | 0.00 | 79 | 1017.0 |
| 20260905133240 | 69 | 65 | 0.0 | 0.0 | 0.00 | 0.00 | 0.00 | 81 | 1016.9 |
| 20260905132740 | 69 | 5 | 0.0 | 0.0 | 0.00 | 0.00 | 0.00 | 82 | 1017.0 |
| 20260905132241 | 68 | 119 | 0.0 | 0.0 | 0.00 | 0.00 | 0.00 | 82 | 1017.0 |
| 20260905131740 | 68 | 38 | 0.0 | 0.0 | 0.00 | 0.00 | 0.00 | 83 | 1016.9 |
| 20260905131240 | 68 | 56 | 0.0 | 0.0 | 0.00 | 0.00 | 0.00 | 83 | 1016.9 |
| 20260905130241 | 66 | 80 | 0.0 | 0.0 | 0.00 | 0.00 | 0.00 | 85 | 1016.9 |
| 20260905125740 | 66 | 57 | 0.0 | 0.0 | 0.00 | 0.00 | 0.00 | 86 | 1016.9 |
| 20260905125240 | 65 | 57 | 0.0 | 0.0 | 0.00 | 0.00 | 0.00 | 88 | 1016.9 |
| 20260905124741 | 65 | 78 | 0.0 | 0.0 | 0.00 | 0.00 | 0.00 | 90 | 1016.8 |
| 20260905123740 | 63 | 57 | 0.0 | 0.0 | 0.00 | 0.00 | 0.00 | 93 | 1016.8 |
| 20260905123240 | 62 | 63 | 0.0 | 0.0 | 0.00 | 0.00 | 0.00 | 94 | 1016.8 |
| 20260905122740 | 61 | 86 | 0.0 | 0.0 | 0.00 | 0.00 | 0.00 | 94 | 1016.7 |
| 20260905121740 | 60 | 106 | 0.0 | 0.0 | 0.00 | 0.00 | 0.00 | 94 | 1016.7 |
| 20260905120740 | 59 | 78 | 0.0 | 0.0 | 0.00 | 0.00 | 0.00 | 94 | 1016.6 |
| 20260905120240 | 59 | 75 | 0.0 | 0.0 | 0.00 | 0.00 | 0.00 | 95 | 1016.7 |
| 20260905115740 | 59 | 42 | 0.0 | 0.0 | 0.00 | 0.00 | 0.00 | 94 | 1016.7 |
| 20260905115240 | 59 | 37 | 0.0 | 0.0 | 0.00 | 0.00 | 0.00 | 94 | 1016.7 |
| 20260905114740 | 59 | 37 | 0.0 | 0.0 | 0.00 | 0.00 | 0.00 | 94 | 1016.6 |
| 20260905114240 | 59 | 33 | 0.0 | 0.0 | 0.00 | 0.00 | 0.00 | 94 | 1016.6 |
| 20260905113740 | 59 | 99 | 0.0 | 0.0 | 0.00 | 0.00 | 0.00 | 94 | 1016.5 |
| 20260905113240 | 59 | 99 | 0.0 | 0.0 | 0.00 | 0.00 | 0.00 | 94 | 1016.5 |
| 20260905112740 | 59 | 99 | 0.0 | 0.0 | 0.00 | 0.01 | 0.00 | 94 | 1016.4 |
| 20260905112240 | 59 | 90 | 0.0 | 0.0 | 0.00 | 0.01 | 0.00 | 94 | 1016.4 |
| 20260905111740 | 59 | 70 | 0.0 | 0.0 | 0.00 | 0.01 | 0.00 | 94 | 1016.3 |
| 20260905111240 | 59 | 70 | 0.0 | 0.0 | 0.00 | 0.01 | 0.00 | 94 | 1016.2 |
| 20260905110740 | 59 | 71 | 0.0 | 0.0 | 0.00 | 0.01 | 0.00 | 94 | 1016.2 |
| 20260905110240 | 59 | 71 | 0.0 | 0.0 | 0.00 | 0.01 | 0.00 | 94 | 1016.2 |
| 20260905105741 | 59 | 71 | 0.0 | 0.0 | 0.00 | 0.01 | 0.00 | 94 | 1016.2 |
| 20260905105240 | 60 | 71 | 0.0 | 0.0 | 0.00 | 0.02 | 0.00 | 94 | 1016.4 |
| 20260905104740 | 60 | 71 | 0.0 | 0.0 | 0.00 | 0.02 | 0.00 | 94 | 1016.3 |
| 20260905103740 | 60 | 23 | 0.0 | 0.0 | 0.00 | 0.02 | 0.00 | 94 | 1016.3 |
| 20260905103240 | 60 | 17 | 0.0 | 0.0 | 0.00 | 0.02 | 0.00 | 93 | 1016.3 |
| 20260905102740 | 61 | 17 | 0.0 | 0.0 | 0.00 | 0.03 | 0.00 | 94 | 1016.2 |
| 20260905102240 | 61 | 17 | 0.0 | 0.0 | 0.00 | 0.03 | 0.00 | 94 | 1016.2 |
| 20260905101740 | 61 | 17 | 0.0 | 0.0 | 0.00 | 0.03 | 0.00 | 93 | 1016.3 |
| 20260905101240 | 61 | 17 | 0.0 | 0.0 | 0.00 | 0.03 | 0.00 | 93 | 1016.1 |
| 20260905100741 | 61 | 17 | 0.0 | 0.0 | 0.00 | 0.03 | 0.00 | 93 | 1016.1 |
| 20260905095744 | 62 | 24 | 0.0 | 0.0 | 0.00 | 0.03 | 0.00 | 93 | 1015.9 |
| 20260905095244 | 62 | 24 | 0.0 | 0.0 | 0.00 | 0.03 | 0.00 | 93 | 1016.0 |
| 20260905094744 | 62 | 24 | 0.0 | 0.0 | 0.00 | 0.03 | 0.00 | 93 | 1016.0 |
| 20260905094243 | 63 | 24 | 0.0 | 0.0 | 0.00 | 0.03 | 0.00 | 93 | 1016.0 |
| 20260905093244 | 63 | 24 | 0.0 | 0.0 | 0.00 | 0.03 | 0.00 | 93 | 1015.8 |
| 20260905092744 | 63 | 5 | 0.0 | 0.0 | 0.00 | 0.03 | 0.00 | 93 | 1015.9 |
| 20260905092243 | 63 | 355 | 0.0 | 0.0 | 0.00 | 0.03 | 0.00 | 93 | 1015.9 |
| 20260905091743 | 64 | 5 | 0.0 | 0.0 | 0.00 | 0.03 | 0.00 | 92 | 1015.9 |
| 20260905091243 | 64 | 5 | 0.0 | 0.0 | 0.00 | 0.03 | 0.00 | 93 | 1015.8 |
| 20260905090743 | 64 | 5 | 0.0 | 0.0 | 0.00 | 0.03 | 0.00 | 93 | 1015.8 |
| 20260905090243 | 64 | 9 | 0.0 | 0.0 | 0.00 | 0.03 | 0.00 | 93 | 1015.8 |
| 20260905085743 | 64 | 9 | 0.0 | 0.0 | 0.00 | 0.03 | 0.00 | 93 | 1015.8 |
| 20260905085244 | 64 | 9 | 0.0 | 0.0 | 0.00 | 0.03 | 0.00 | 93 | 1015.8 |
| 20260905084243 | 64 | 24 | 0.0 | 0.0 | 0.00 | 0.03 | 0.00 | 93 | 1015.6 |
| 20260905083743 | 64 | 14 | 0.0 | 0.0 | 0.00 | 0.03 | 0.00 | 93 | 1015.6 |
| 20260905083243 | 65 | 32 | 0.0 | 0.0 | 0.00 | 0.03 | 0.00 | 93 | 1015.8 |
| 20260905082743 | 65 | 35 | 0.0 | 0.0 | 0.00 | 0.03 | 0.00 | 93 | 1015.8 |
| 20260905081243 | 65 | 83 | 0.0 | 0.0 | 0.00 | 0.03 | 0.00 | 93 | 1015.8 |
| 20260905080743 | 65 | 83 | 0.0 | 0.0 | 0.00 | 0.03 | 0.00 | 93 | 1015.7 |
| 20260905080243 | 65 | 55 | 0.0 | 0.0 | 0.00 | 0.03 | 0.00 | 93 | 1015.8 |
| 20260905075743 | 65 | 55 | 0.0 | 0.0 | 0.00 | 0.03 | 0.00 | 93 | 1015.9 |
| 20260905075243 | 65 | 60 | 0.0 | 0.0 | 0.00 | 0.03 | 0.00 | 93 | 1016.0 |
| 20260905074744 | 65 | 47 | 0.0 | 0.0 | 0.00 | 0.03 | 0.00 | 93 | 1016.0 |
| 20260905074243 | 65 | 5 | 0.0 | 0.0 | 0.00 | 0.03 | 0.00 | 93 | 1016.0 |
| 20260905073743 | 65 | 5 | 0.0 | 0.0 | 0.00 | 0.03 | 0.00 | 93 | 1016.0 |
| 20260905073244 | 65 | 11 | 0.0 | 0.0 | 0.00 | 0.03 | 0.00 | 93 | 1016.0 |
| 20260905072743 | 65 | 11 | 0.0 | 0.0 | 0.00 | 0.03 | 0.00 | 93 | 1016.0 |
| 20260905071743 | 65 | 12 | 0.0 | 0.0 | 0.00 | 0.03 | 0.00 | 93 | 1015.9 |
| 20260905071244 | 65 | 17 | 0.0 | 0.0 | 0.00 | 0.03 | 0.00 | 93 | 1015.9 |
| 20260905070743 | 65 | 17 | 0.0 | 0.0 | 0.00 | 0.03 | 0.00 | 92 | 1015.8 |
| 20260905070243 | 65 | 14 | 0.0 | 0.0 | 0.00 | 0.03 | 0.00 | 92 | 1015.8 |
| 20260905065243 | 65 | 59 | 0.0 | 0.0 | 0.00 | 0.03 | 0.00 | 92 | 1015.8 |
| 20260905064744 | 65 | 59 | 0.0 | 0.0 | 0.00 | 0.03 | 0.00 | 92 | 1015.8 |
| 20260905064243 | 65 | 60 | 0.0 | 0.0 | 0.00 | 0.03 | 0.00 | 92 | 1015.8 |
| 20260905063743 | 65 | 5 | 0.0 | 0.0 | 0.00 | 0.03 | 0.00 | 92 | 1015.8 |
| 20260905063243 | 65 | 46 | 0.0 | 0.0 | 0.00 | 0.03 | 0.00 | 92 | 1015.8 |
| 20260905062743 | 65 | 45 | 0.0 | 0.0 | 0.00 | 0.03 | 0.00 | 92 | 1015.8 |
| 20260905062243 | 65 | 38 | 0.0 | 0.0 | 0.00 | 0.03 | 0.00 | 92 | 1015.8 |
| 20260905061744 | 65 | 38 | 0.0 | 0.0 | 0.00 | 0.03 | 0.00 | 92 | 1015.8 |
| 20260905061243 | 65 | 58 | 0.0 | 0.0 | 0.00 | 0.03 | 0.00 | 92 | 1015.8 |
| 20260905060743 | 65 | 83 | 0.0 | 0.0 | 0.00 | 0.03 | 0.00 | 91 | 1015.8 |
| 20260905055745 | 65 | 69 | 0.0 | 0.0 | 0.00 | 0.03 | 0.00 | 92 | 1015.8 |
| 20260905055245 | 65 | 68 | 0.0 | 0.0 | 0.00 | 0.03 | 0.00 | 92 | 1015.8 |
| 20260905054745 | 65 | 105 | 0.0 | 0.0 | 0.00 | 0.03 | 0.00 | 92 | 1015.8 |
| 20260905054245 | 65 | 60 | 0.0 | 0.0 | 0.00 | 0.03 | 0.00 | 92 | 1015.8 |
| 20260905053745 | 65 | 127 | 0.0 | 0.0 | 0.00 | 0.03 | 0.00 | 93 | 1015.9 |
| 20260905053245 | 64 | 80 | 0.0 | 0.0 | 0.00 | 0.03 | 0.00 | 93 | 1015.7 |
| 20260905052745 | 64 | 182 | 0.0 | 0.0 | 0.00 | 0.03 | 0.00 | 93 | 1015.8 |
| 20260905052245 | 64 | 82 | 0.0 | 0.0 | 0.00 | 0.03 | 0.00 | 93 | 1015.7 |
| 20260905051745 | 64 | 96 | 0.0 | 0.0 | 0.00 | 0.03 | 0.00 | 93 | 1015.8 |
| 20260905051245 | 64 | 67 | 0.0 | 0.0 | 0.00 | 0.03 | 0.00 | 93 | 1015.7 |
| 20260905050745 | 64 | 73 | 0.0 | 0.0 | 0.00 | 0.03 | 0.00 | 93 | 1015.7 |
| 20260905050245 | 64 | 17 | 0.0 | 0.0 | 0.00 | 0.03 | 0.00 | 93 | 1015.6 |
| 20260905045745 | 64 | 117 | 0.0 | 0.0 | 0.00 | 0.03 | 0.00 | 93 | 1015.7 |
| 20260905045245 | 63 | 117 | 0.0 | 0.0 | 0.00 | 0.03 | 0.00 | 94 | 1015.5 |
| 20260905043745 | 63 | 65 | 0.0 | 0.0 | 0.00 | 0.03 | 0.00 | 93 | 1015.6 |
| 20260905043245 | 63 | 104 | 0.0 | 0.0 | 0.00 | 0.03 | 0.00 | 93 | 1015.6 |
| 20260905042745 | 63 | 104 | 0.0 | 0.0 | 0.00 | 0.03 | 0.00 | 93 | 1015.5 |
| 20260905042245 | 63 | 93 | 0.0 | 0.0 | 0.00 | 0.03 | 0.00 | 93 | 1015.5 |
| 20260905041745 | 64 | 92 | 0.0 | 0.0 | 0.00 | 0.03 | 0.00 | 92 | 1015.5 |
| 20260905041245 | 64 | 56 | 0.0 | 0.0 | 0.00 | 0.03 | 0.00 | 92 | 1015.6 |
| 20260905040745 | 64 | 56 | 0.0 | 0.0 | 0.00 | 0.03 | 0.00 | 92 | 1015.6 |
| 20260905040245 | 64 | 93 | 0.0 | 0.0 | 0.00 | 0.03 | 0.00 | 92 | 1015.6 |
| 20260905035745 | 64 | 93 | 0.0 | 0.0 | 0.00 | 0.03 | 0.00 | 92 | 1015.5 |
| 20260905035245 | 64 | 93 | 0.0 | 0.0 | 0.00 | 0.03 | 0.03 | 92 | 1015.3 |
| 20260905034745 | 64 | 115 | 0.0 | 0.0 | 0.00 | 0.03 | 0.03 | 92 | 1015.3 |
| 20260905034245 | 64 | 113 | 0.0 | 0.0 | 0.00 | 0.03 | 0.03 | 92 | 1015.4 |
| 20260905032745 | 65 | 323 | 0.0 | 0.0 | 0.00 | 0.03 | 0.03 | 92 | 1015.6 |
| 20260905032245 | 65 | 323 | 0.0 | 0.0 | 0.00 | 0.03 | 0.03 | 92 | 1015.6 |
| 20260905031745 | 65 | 62 | 0.0 | 0.0 | 0.00 | 0.03 | 0.03 | 91 | 1015.6 |
| 20260905031245 | 65 | 76 | 0.0 | 0.0 | 0.00 | 0.03 | 0.03 | 91 | 1015.6 |
| 20260905030745 | 65 | 96 | 0.0 | 0.0 | 0.00 | 0.03 | 0.03 | 92 | 1015.6 |
| 20260905025745 | 65 | 93 | 0.0 | 0.0 | 0.00 | 0.03 | 0.03 | 92 | 1015.7 |
| 20260905025245 | 65 | 163 | 0.0 | 0.0 | 0.00 | 0.03 | 0.03 | 92 | 1015.7 |
| 20260905024245 | 65 | 93 | 0.0 | 0.0 | 0.00 | 0.03 | 0.03 | 91 | 1015.4 |
| 20260905023745 | 65 | 65 | 0.0 | 0.0 | 0.00 | 0.03 | 0.03 | 91 | 1015.4 |
| 20260905022745 | 65 | 19 | 0.0 | 0.0 | 0.00 | 0.03 | 0.03 | 91 | 1015.4 |
| 20260905022245 | 66 | 142 | 0.0 | 0.0 | 0.00 | 0.03 | 0.03 | 91 | 1015.5 |
| 20260905021745 | 66 | 113 | 0.0 | 0.0 | 0.00 | 0.03 | 0.03 | 91 | 1015.5 |
| 20260905021245 | 66 | 44 | 0.0 | 0.0 | 0.00 | 0.03 | 0.03 | 91 | 1015.5 |
| 20260905015748 | 66 | 27 | 0.0 | 0.0 | 0.00 | 0.03 | 0.03 | 91 | 1015.4 |
| 20260905015248 | 66 | 17 | 0.0 | 0.0 | 0.00 | 0.03 | 0.03 | 90 | 1015.4 |
| 20260905014248 | 67 | 38 | 0.0 | 0.0 | 0.00 | 0.03 | 0.03 | 90 | 1015.5 |
| 20260905013748 | 67 | 51 | 0.0 | 0.0 | 0.00 | 0.03 | 0.03 | 90 | 1015.5 |
| 20260905013248 | 67 | 62 | 0.0 | 0.0 | 0.00 | 0.03 | 0.03 | 90 | 1015.6 |
| 20260905012748 | 67 | 44 | 0.0 | 0.0 | 0.00 | 0.03 | 0.03 | 90 | 1015.6 |
| 20260905012248 | 68 | 49 | 0.0 | 0.0 | 0.00 | 0.03 | 0.03 | 90 | 1015.6 |
| 20260905011748 | 68 | 18 | 0.0 | 0.0 | 0.00 | 0.03 | 0.03 | 90 | 1015.4 |